Tracking 27122 objects as of 24-Mar-2023
HD Live streaming from Space Station
objects crossing your sky now

GLOBAL-8

Track GLOBAL-8 now!
10-day predictions


NORAD ID: 46089
Int'l Code: 2020-055BQ
Perigee: 384.8 km
Apogee: 412.5 km
Inclination: 53.0 °
Period: 92.4 minutes
Semi major axis: 6769 km
RCS: Unknown
Launch date: August 7, 2020
Source: United States (US)
Launch site: AIR FORCE EASTERN TEST RANGE (AFETR)
Your satellite tracking list
Your tracking list is empty




NASA's NSSDC Master Catalog

Two Line Element Set (TLE):
1 46089U 20055BQ  23082.95626016  .00008830  00000-0  11832-3 0  9996
2 46089  52.9950 323.1886 0020415 178.1346 181.9744 15.58661188153879
Source of the keplerian elements: AFSPC